Location: Stonelick Lake State Park
(39.2170°N, 84.0850°W)
Time: 09:42:25
(UTC-04:00)

Amateur Radio Satellites - All Passes

Search period start: 26 May 2015 09:12
Search period end: 27 May 2015 09:12
Location: Stonelick Lake State Park, 39.2170°N, 84.0850°W

Satellite Date Start Highest point End Downlink Frequencies (MHz)
Time Altitude Azimuth
STRAND 1 26 May 09:15:44 09:18:30 14° 271° (W) 09:20:59 437.568
Cosmos 2491 26 May 09:18:27 09:25:44 29° 276° (W) 09:32:41 435.465 / 435.565
BRITE-PL 26 May 09:35:51 09:41:32 71° 100° (E) 09:46:56 437.365/2234.400
PCSat 26 May 09:35:53 09:38:22 13° 40° (NE) 09:41:04 145.827
GOMX 1 26 May 09:43:17 09:48:32 53° 98° (E) 09:53:32 467.674
PHONESAT 2.4 26 May 09:52:04 09:54:53 23° 210° (SSW) 09:57:41 2401.200-2431.200
Cosmos 2504 26 May 10:00:33 10:07:06 27° 86° (E) 10:13:35 435.465 / 435.565
CANX-2 26 May 10:05:34 10:09:44 58° 100° (E) 10:13:52 2200.000
YUBILEINY 26 May 10:08:52 10:16:32 31° 291° (WNW) 10:23:58 435.215
CUTE 1.7 + AOD 2 26 May 10:09:16 10:13:26 57° 100° (E) 10:17:34 437.475
Oscar 11 26 May 10:14:54 10:17:32 16° 91° (E) 10:20:20 145.826/435.025
TIGRISAT 26 May 10:25:33 10:28:53 20° 68° (ENE) 10:32:21 435.000
CINEMA 3 26 May 10:32:49 10:37:26 50° 99° (E) 10:41:50 145.822/145.860
HO-68 26 May 10:33:06 10:40:18 86° 105° (ESE) 10:47:28 435.675
SEEDS 26 May 10:33:15 10:37:27 90° 312° (NW) 10:41:37 437.485
UWE-3 26 May 10:43:20 10:46:54 24° 93° (E) 10:50:26 435.000/436.395/437.385
UNISAT 6 26 May 10:44:42 10:48:51 32° 71° (ENE) 10:53:01 437.425
COMPASS 1 26 May 10:47:54 10:52:04 76° 284° (WNW) 10:56:11 437.405
DOVE 4 26 May 10:48:26 10:53:29 55° 286° (WNW) 10:58:12 437.250
FUNcube-1 26 May 10:55:40 10:59:13 25° 94° (E) 11:02:46 145.935
QB50P1 26 May 10:57:59 11:00:57 19° 68° (ENE) 11:04:03 145.935-145.965
POLYITAN 1 26 May 10:59:22 11:02:27 20° 68° (ENE) 11:05:41 437.675
AAUSAT CUBESAT 2 26 May 11:00:50 11:04:55 62° 285° (WNW) 11:09:00 437.432
BRITE-PL 26 May 11:15:52 11:19:24 17° 297° (WNW) 11:22:40 437.365/2234.400
PCSat 26 May 11:17:21 11:22:47 78° 60° (ENE) 11:28:12 145.827
RS-15 26 May 11:19:03 11:29:45 57° 310° (NW) 11:40:43 29.354- 29.394
GOMX 1 26 May 11:22:21 11:26:13 20° 295° (WNW) 11:29:49 467.674
ANTELSAT 26 May 11:27:21 11:32:04 89° 244° (WSW) 11:36:46 437.575/2403.000
NANOSAT C BR1 26 May 11:28:29 11:32:28 40° 72° (ENE) 11:36:31 145.865
CUBEBUG 2 26 May 11:30:02 11:34:32 77° 284° (WNW) 11:38:50 437.445
DELFI C3 26 May 11:33:36 11:37:38 82° 284° (WNW) 11:41:38 145.870
ZACube-1 26 May 11:35:17 11:39:39 77° 101° (ESE) 11:43:52 437.345
QB50P2 26 May 11:35:43 11:39:51 50° 74° (ENE) 11:44:03 145.880/145.840
HUMSAT D 26 May 11:36:24 11:40:10 33° 96° (E) 11:43:54 437.325/437.525
UKube-1 26 May 11:39:02 11:43:00 34° 97° (E) 11:46:58 .
CANX-2 26 May 11:43:33 11:45:14 12° 294° (WNW) 11:46:42 2200.000
DX 1 26 May 11:46:24 11:50:37 45° 99° (E) 11:54:50 434.975-435.025
CUTE 1.7 + AOD 2 26 May 11:47:11 11:48:55 12° 294° (WNW) 11:50:26 437.475
POPSAT HIP 1 26 May 11:48:04 11:52:19 69° 76° (ENE) 11:56:37 437.405
Oscar 11 26 May 11:49:54 11:53:56 40° 288° (WNW) 11:57:56 145.826/435.025
DUCHIFAT 1 26 May 11:50:41 11:54:55 72° 76° (ENE) 11:59:13 145.980
Cosmos 2504 26 May 11:51:52 12:00:09 58° 282° (WNW) 12:07:51 435.465 / 435.565
VELOX 1 26 May 11:57:37 12:01:31 29° 96° (E) 12:05:27 145.980
ESTCUBE 1 26 May 11:57:56 12:00:56 18° 92° (E) 12:04:06 437.505/2401.250
CUBEBUG 1 26 May 11:59:08 12:01:44 16° 91° (E) 12:04:30 437.445
TIGRISAT 26 May 12:00:57 12:05:23 40° 262° (W) 12:09:47 435.000
CINEMA 3 26 May 12:11:12 12:14:12 16° 295° (WNW) 12:16:56 145.822/145.860
BUGSAT 1 26 May 12:17:26 12:21:34 81° 257° (WSW) 12:25:47 437.445
UWE-3 26 May 12:19:40 12:23:25 27° 290° (WNW) 12:27:00 435.000/436.395/437.385
UNISAT 6 26 May 12:21:47 12:25:39 24° 266° (W) 12:29:24 437.425
HO-68 26 May 12:22:33 12:27:15 18° 302° (WNW) 12:31:37 435.675
AISAT 26 May 12:28:33 12:33:03 69° 102° (ESE) 12:37:31 437.250
FUNcube-1 26 May 12:31:54 12:35:30 25° 291° (WNW) 12:38:58 145.935
QB50P1 26 May 12:32:38 12:36:35 35° 263° (W) 12:40:33 145.935-145.965
POLYITAN 1 26 May 12:34:14 12:38:10 34° 263° (W) 12:42:06 437.675
CUSAT 1 26 May 12:35:22 12:40:01 19° 81° (E) 12:45:27 437.405
SPROUT 26 May 12:41:51 12:43:23 12° 89° (E) 12:45:10 437.525
GONETS M04 26 May 12:42:53 12:48:12 19° 80° (E) 12:54:01
50 SAT 26 May 12:43:30 12:47:21 66° 285° (WNW) 12:51:10 437.505
SO-50 26 May 12:44:37 12:49:21 42° 52° (NE) 12:54:01 436.795
Oscar 19 26 May 12:49:49 12:52:03 13° 62° (ENE) 12:54:33 437.125/150
PCSat 26 May 13:03:05 13:05:37 13° 255° (WSW) 13:07:49 145.827
NANOSAT C BR1 26 May 13:05:46 13:08:32 16° 269° (W) 13:11:08 145.865
TISAT 1 26 May 13:07:10 13:09:52 17° 92° (E) 13:12:42 437.305
HUMSAT D 26 May 13:12:43 13:15:43 19° 292° (WNW) 13:18:34 437.325/437.525
QB50P2 26 May 13:14:01 13:16:07 13° 270° (W) 13:17:59 145.880/145.840
UKube-1 26 May 13:15:40 13:18:56 20° 292° (WNW) 13:22:05 .
DX 1 26 May 13:23:44 13:26:32 16° 294° (WNW) 13:29:11 434.975-435.025
ESTCUBE 1 26 May 13:33:46 13:38:01 40° 288° (WNW) 13:42:15 437.505/2401.250
CUBEBUG 1 26 May 13:34:07 13:38:22 45° 287° (WNW) 13:42:35 437.445
VELOX 1 26 May 13:34:18 13:37:59 25° 291° (WNW) 13:41:33 145.980
RS-15 26 May 13:37:23 13:45:29 22° 341° (NNW) 13:53:34 29.354- 29.394
DANDE 26 May 13:39:04 13:45:32 44° 89° (E) 13:53:19 436.750
JUGNU 26 May 13:53:09 13:54:21 11° 182° (S) 13:55:31 437.505
AISAT 26 May 14:07:25 14:09:07 12° 296° (WNW) 14:10:35 437.250
CUSAT 1 26 May 14:14:27 14:21:39 85° 279° (W) 14:30:01 437.405
SPROUT 26 May 14:15:38 14:19:54 55° 286° (WNW) 14:24:07 437.525
Oscar 19 26 May 14:25:37 14:30:49 78° 257° (WSW) 14:36:03 437.125/150
SO-50 26 May 14:25:43 14:29:41 23° 248° (WSW) 14:33:27 436.795
AO-7 26 May 14:26:19 14:29:14 13° 48° (NE) 14:32:41 29.400- 29.500
Cosmos 2499 26 May 14:34:09 14:38:21 16° 83° (E) 14:42:54 435.465 / 435.565
GONETS M04 26 May 14:35:12 14:44:04 84° 277° (W) 14:52:59
ITAMSAT 1 26 May 14:38:37 14:43:23 41° 71° (ENE) 14:48:16 435.822/435.867
TISAT 1 26 May 14:41:51 14:45:51 38° 288° (WNW) 14:49:47 437.305
SRMSAT 26 May 15:08:51 15:10:13 11° 180° (S) 15:11:34 437.500
Gurwin Techsat 1B 26 May 15:12:01 15:17:19 79° 76° (ENE) 15:22:39 435.225
ITUPSAT 1 26 May 15:14:01 15:18:46 63° 101° (E) 15:23:31 437.325
BEESAT 26 May 15:22:06 15:26:54 79° 102° (ESE) 15:31:41 436.000
DANDE 26 May 15:22:17 15:28:55 39° 291° (WNW) 15:36:34 436.750
HORYU 2 26 May 15:27:21 15:30:16 18° 67° (ENE) 15:33:20 437.375
SWISSCUBE 26 May 15:30:31 15:35:18 79° 285° (WNW) 15:40:05 437.505
KKS-1 26 May 15:37:03 15:40:10 19° 92° (E) 15:43:25 437.445
O/OREOS (USA 219) 26 May 15:47:47 15:51:04 20° 102° (ESE) 15:54:27 437.305
RS-15 26 May 15:55:51 16:03:39 20° 16° (NNE) 16:11:54 29.354- 29.394
CUSAT 1 26 May 16:00:41 16:05:51 18° 302° (WNW) 16:10:58 437.405
AO-7 26 May 16:12:28 16:20:30 59° 67° (ENE) 16:28:39 29.400- 29.500
ITAMSAT 1 26 May 16:19:01 16:23:05 23° 267° (W) 16:27:04 435.822/435.867
JAS-2 26 May 16:19:33 16:26:15 65° 74° (ENE) 16:32:12 435.910
Cosmos 2499 26 May 16:22:32 16:30:47 87° 278° (W) 16:38:26 435.465 / 435.565
GONETS M04 26 May 16:37:03 16:42:34 17° 300° (WNW) 16:47:33
STARS 26 May 16:41:48 16:46:12 61° 101° (E) 16:50:33 437.465
ITUPSAT 1 26 May 16:53:36 16:56:11 14° 296° (WNW) 16:58:33 437.325
Gurwin Techsat 1B 26 May 16:56:03 16:58:02 12° 273° (W) 16:59:38 435.225
HORYU 2 26 May 17:02:20 17:06:37 42° 261° (W) 17:10:54 437.375
BEESAT 26 May 17:02:31 17:04:10 11° 297° (WNW) 17:05:33 436.000
MOZHAYETS 4 26 May 17:02:47 17:04:39 13° 89° (E) 17:06:46
KKS-1 26 May 17:12:49 17:16:58 37° 289° (WNW) 17:21:04 437.445
O/OREOS (USA 219) 26 May 17:26:07 17:30:17 35° 298° (WNW) 17:34:25 437.305
AO-7 26 May 18:06:42 18:13:48 30° 266° (W) 18:20:42 29.400- 29.500
JAS-2 26 May 18:06:57 18:11:43 19° 268° (W) 18:15:53 435.910
RS-15 26 May 18:08:48 18:19:54 50° 47° (NE) 18:31:34 29.354- 29.394
BEESAT 3 26 May 18:10:38 18:13:40 21° 112° (ESE) 18:16:49 437.485
STARS 26 May 18:20:08 18:22:11 13° 296° (WNW) 18:24:00 437.465
Cosmos 2499 26 May 18:20:31 18:25:07 15° 297° (WNW) 18:29:05 435.465 / 435.565
YUBILEINY 26 May 18:22:55 18:29:38 25° 66° (ENE) 18:36:38 435.215
CUTE-I 26 May 18:26:43 18:31:31 37° 70° (ENE) 18:36:24 437.470
Cosmos 2491 26 May 18:31:01 18:33:06 11° 76° (ENE) 18:35:59 435.465 / 435.565
MOZHAYETS 4 26 May 18:37:50 18:42:20 58° 285° (WNW) 18:46:48
CUBESAT XI-V 26 May 18:40:40 18:41:52 11° 88° (E) 18:43:23 437.345
Cubesat XI-IV 26 May 18:46:45 18:51:55 57° 73° (ENE) 18:57:09 437.490
AIST 2 26 May 18:47:19 18:48:45 12° 109° (ESE) 18:50:25 435.215
BEESAT 2 26 May 18:57:38 19:01:39 57° 118° (ESE) 19:05:44 435.950
HO-68 26 May 19:19:26 19:20:35 11° 52° (NE) 19:22:11 435.675
STRAND 1 26 May 19:46:00 19:50:01 23° 93° (E) 19:54:08 437.568
BEESAT 3 26 May 19:47:44 19:51:28 33° 308° (NW) 19:55:14 437.485
CUTE-I 26 May 20:07:15 20:11:43 26° 266° (W) 20:16:06 437.470
PRISM 26 May 20:12:58 20:16:58 47° 100° (E) 20:21:01 437.425
CUBESAT XI-V 26 May 20:15:11 20:19:52 69° 285° (WNW) 20:24:33 437.345
DOVE 4 26 May 20:16:42 20:19:45 17° 64° (ENE) 20:23:04 437.250
YUBILEINY 26 May 20:18:41 20:27:19 68° 267° (W) 20:35:52 435.215
Cosmos 2491 26 May 20:19:52 20:28:34 71° 94° (E) 20:37:21 435.465 / 435.565
RS-15 26 May 20:21:23 20:32:36 52° 248° (WSW) 20:44:03 29.354- 29.394
AIST 2 26 May 20:22:39 20:26:52 63° 303° (WNW) 20:31:08 435.215
Cubesat XI-IV 26 May 20:29:01 20:32:29 17° 270° (W) 20:35:43 437.490
M-CUBED/EXP-1 PRIME 26 May 20:34:06 20:36:47 23° 101° (E) 20:39:32 437.505
BEESAT 2 26 May 20:37:32 20:40:08 16° 316° (NW) 20:42:38 435.950
AUBIESAT-1 26 May 20:42:32 20:45:20 25° 102° (ESE) 20:48:11 437.475
BRITE-PL 26 May 20:44:59 20:49:59 68° 75° (ENE) 20:55:25 437.365/2234.400
GOMX 1 26 May 20:49:36 20:54:30 49° 73° (ENE) 20:59:43 467.674
CANX-2 26 May 20:57:30 21:01:23 36° 72° (ENE) 21:05:19 2200.000
HO-68 26 May 21:00:02 21:07:01 59° 70° (ENE) 21:14:04 435.675
CUTE 1.7 + AOD 2 26 May 21:01:07 21:04:59 35° 72° (ENE) 21:08:54 437.475
Oscar 11 26 May 21:10:02 21:11:40 12° 65° (ENE) 21:13:31 145.826/435.025
AIST 1 26 May 21:13:39 21:17:36 39° 93° (E) 21:21:37
SEEDS 26 May 21:24:01 21:28:08 53° 75° (ENE) 21:32:16 437.485
STRAND 1 26 May 21:24:35 21:29:22 39° 290° (WNW) 21:34:07 437.568
CINEMA 3 26 May 21:32:45 21:37:25 43° 72° (ENE) 21:42:12 145.822/145.860
COMPASS 1 26 May 21:37:47 21:41:55 62° 75° (ENE) 21:46:03 437.405
UWE-3 26 May 21:39:32 21:42:55 21° 68° (ENE) 21:46:26 435.000/436.395/437.385
Cosmos 2504 26 May 21:45:45 21:52:37 46° 76° (ENE) 21:59:31 435.465 / 435.565
PRISM 26 May 21:49:48 21:52:04 14° 294° (WNW) 21:54:11 437.425
AAUSAT CUBESAT 2 26 May 21:50:10 21:54:20 74° 76° (ENE) 21:58:30 437.432
FUNcube-1 26 May 21:50:35 21:53:52 20° 68° (ENE) 21:57:17 145.935
DOVE 4 26 May 21:51:55 21:56:57 63° 260° (W) 22:02:14 437.250
M-CUBED/EXP-1 PRIME 26 May 22:09:22 22:11:33 16° 296° (WNW) 22:13:39 437.505
AUBIESAT-1 26 May 22:17:59 22:20:00 15° 296° (WNW) 22:21:55 437.475
Cosmos 2491 26 May 22:19:21 22:26:22 25° 295° (WNW) 22:33:05 435.465 / 435.565
DELFI C3 26 May 22:19:44 22:23:37 50° 74° (ENE) 22:27:33 145.870
YUBILEINY 26 May 22:21:00 22:22:41 10° 284° (WNW) 22:23:33 435.215
CUBEBUG 2 26 May 22:26:22 22:31:08 78° 76° (ENE) 22:35:55 437.445
BRITE-PL 26 May 22:26:30 22:29:13 14° 274° (W) 22:31:42 437.365/2234.400
HUMSAT D 26 May 22:27:27 22:30:45 22° 69° (ENE) 22:34:10 437.325/437.525
GOMX 1 26 May 22:29:13 22:32:59 20° 271° (W) 22:36:43 467.674
ZACube-1 26 May 22:29:38 22:34:06 53° 74° (ENE) 22:38:36 437.345
UKube-1 26 May 22:33:08 22:36:41 26° 69° (ENE) 22:40:20 .
CANX-2 26 May 22:34:28 22:37:28 18° 268° (W) 22:40:19 2200.000
CUTE 1.7 + AOD 2 26 May 22:38:03 22:41:03 18° 268° (W) 22:43:56 437.475
DX 1 26 May 22:41:03 22:44:57 34° 71° (ENE) 22:48:57 434.975-435.025
Oscar 11 26 May 22:43:07 22:47:24 60° 260° (W) 22:51:42 145.826/435.025
HO-68 26 May 22:49:22 22:55:13 25° 267° (W) 23:00:51 435.675
AIST 1 26 May 22:52:53 22:55:31 15° 290° (WNW) 22:58:00
VELOX 1 26 May 22:54:33 22:58:03 24° 68° (ENE) 23:01:40 145.980
CUBEBUG 1 26 May 22:55:38 22:57:15 12° 65° (ENE) 22:59:06 437.445
ESTCUBE 1 26 May 22:57:24 22:59:55 15° 66° (ENE) 23:02:38 437.505/2401.250
SEEDS 26 May 23:02:39 23:04:19 12° 271° (W) 23:05:45 437.485
CINEMA 3 26 May 23:11:02 23:14:50 21° 269° (W) 23:18:30 145.822/145.860
ISS 26 May 23:12:17 23:13:42 13° 130° (SE) 23:15:15 145.825
UWE-3 26 May 23:14:47 23:19:12 40° 263° (W) 23:23:36 435.000/436.395/437.385
CUSAT 1 26 May 23:16:15 23:18:48 12° 53° (NE) 23:21:35 437.405
ANTELSAT 26 May 23:21:37 23:24:46 20° 92° (E) 23:27:59 437.575/2403.000
AISAT 26 May 23:25:09 23:29:28 53° 73° (ENE) 23:33:51 437.250
FUNcube-1 26 May 23:25:39 23:29:57 38° 263° (W) 23:34:14 145.935
50 SAT 26 May 23:26:43 23:30:39 57° 75° (ENE) 23:34:34 437.505
POPSAT HIP 1 26 May 23:36:27 23:38:03 12° 89° (E) 23:39:54 437.405
DUCHIFAT 1 26 May 23:38:29 23:40:13 12° 89° (E) 23:42:10 145.980
Cosmos 2504 26 May 23:39:44 23:45:45 28° 273° (W) 23:51:34 435.465 / 435.565
TIGRISAT 26 May 23:53:49 23:58:00 44° 98° (E) 00:02:07 435.000
DELFI C3 26 May 23:57:40 23:59:06 11° 271° (W) 00:00:17 145.870
TISAT 1 26 May 23:59:47 00:01:18 12° 65° (ENE) 00:03:01 437.305
BUGSAT 1 27 May 00:01:56 00:04:34 16° 91° (E) 00:07:20 437.445
HUMSAT D 27 May 00:02:31 00:06:22 30° 264° (W) 00:10:11 437.325/437.525
CUBEBUG 2 27 May 00:08:05 00:08:27 10° 273° (W) 00:08:28 437.445
ZACube-1 27 May 00:08:16 00:10:50 14° 270° (W) 00:13:10 437.345
UKube-1 27 May 00:09:08 00:12:47 26° 265° (W) 00:16:23 .
UNISAT 6 27 May 00:14:01 00:18:26 79° 102° (ESE) 00:22:43 437.425
DX 1 27 May 00:18:05 00:21:20 20° 267° (W) 00:24:28 434.975-435.025
QB50P1 27 May 00:18:38 00:22:37 38° 98° (E) 00:26:36 145.935-145.965
PCSat 27 May 00:19:30 00:20:19 10° 103° (ESE) 00:21:32 145.827
POLYITAN 1 27 May 00:20:28 00:24:31 40° 98° (E) 00:28:33 437.675
DANDE 27 May 00:23:15 00:30:15 35° 67° (ENE) 00:36:05 436.750
CUBEBUG 1 27 May 00:28:50 00:33:08 62° 259° (W) 00:37:30 437.445
VELOX 1 27 May 00:30:35 00:34:30 30° 264° (W) 00:38:23 145.980
ESTCUBE 1 27 May 00:32:05 00:36:26 50° 261° (W) 00:40:48 437.505/2401.250
ISS 27 May 00:46:35 00:49:48 62° 325° (NW) 00:53:01 145.825
GONETS M04 27 May 00:47:10 00:55:32 47° 75° (ENE) 01:03:52
NANOSAT C BR1 27 May 00:49:50 00:54:08 88° 90° (E) 00:58:23 145.865
CUSAT 1 27 May 00:56:07 01:03:24 75° 78° (ENE) 01:08:57 437.405
ANTELSAT 27 May 00:57:43 01:01:41 33° 289° (WNW) 01:05:31 437.575/2403.000
QB50P2 27 May 00:57:44 01:02:02 72° 284° (WNW) 01:06:16 145.880/145.840
SWISSCUBE 27 May 01:01:58 01:03:22 11° 63° (ENE) 01:05:01 437.505
AISAT 27 May 01:04:12 01:06:27 13° 270° (W) 01:08:29 437.250
SPROUT 27 May 01:08:18 01:12:38 85° 258° (WSW) 01:16:59 437.525
POPSAT HIP 1 27 May 01:10:08 01:14:20 53° 286° (WNW) 01:18:29 437.405
DUCHIFAT 1 27 May 01:12:15 01:16:25 51° 286° (WNW) 01:20:31 145.980
TIGRISAT 27 May 01:31:40 01:34:26 16° 294° (WNW) 01:36:59 435.000
TISAT 1 27 May 01:32:25 01:36:36 60° 259° (W) 01:40:50 437.305
BUGSAT 1 27 May 01:36:13 01:40:14 40° 288° (WNW) 01:44:12 437.445
QB50P1 27 May 01:55:16 01:58:13 18° 293° (WNW) 02:01:02 145.935-145.965
POLYITAN 1 27 May 01:57:18 02:00:08 17° 293° (WNW) 02:02:48 437.675
PCSat 27 May 01:57:38 02:03:03 90° 168° (SSE) 02:08:32 145.827
O/OREOS (USA 219) 27 May 01:57:43 02:01:45 33° 62° (ENE) 02:05:49 437.305
DANDE 27 May 02:06:26 02:13:40 42° 271° (W) 02:19:23 436.750
VERMONT LUNAR 27 May 02:10:42 02:13:16 22° 151° (SSE) 02:15:52 437.305
Cosmos 2499 27 May 02:15:37 02:21:26 28° 70° (ENE) 02:27:29 435.465 / 435.565
ITUPSAT 1 27 May 02:19:41 02:24:24 64° 74° (ENE) 02:29:07 437.325
ISS 27 May 02:24:53 02:26:45 14° 343° (NNW) 02:28:36 145.825
BEESAT 27 May 02:27:25 02:32:09 79° 77° (ENE) 02:36:56 436.000
BEESAT 3 27 May 02:30:49 02:32:27 12° 41° (NE) 02:34:13 437.485
KKS-1 27 May 02:34:51 02:37:34 16° 66° (ENE) 02:40:27 437.445
SWISSCUBE 27 May 02:35:54 02:40:38 78° 256° (WSW) 02:45:25 437.505
Oscar 19 27 May 02:38:32 02:43:21 40° 97° (E) 02:48:11 437.125/150
PHONESAT 2.4 27 May 02:39:32 02:40:43 11° 145° (SE) 02:41:59 2401.200-2431.200
CUSAT 1 27 May 02:40:51 02:44:54 16° 280° (W) 02:48:11 437.405
GONETS M04 27 May 02:44:23 02:52:13 37° 273° (W) 02:59:49
ITAMSAT 1 27 May 02:53:42 02:56:40 16° 90° (E) 02:59:53 435.822/435.867
SO-50 27 May 02:59:39 03:02:30 17° 110° (ESE) 03:05:34 436.795
BEESAT 2 27 May 03:18:09 03:21:38 26° 49° (NE) 03:25:07 435.950
Gurwin Techsat 1B 27 May 03:29:38 03:34:26 34° 96° (E) 03:39:16 435.225
STARS 27 May 03:37:30 03:41:44 46° 73° (ENE) 03:46:02 437.465
O/OREOS (USA 219) 27 May 03:37:34 03:41:00 21° 257° (WSW) 03:44:20 437.305
PCSat 27 May 03:44:06 03:47:19 15° 318° (NW) 03:50:22 145.827
VERMONT LUNAR 27 May 03:47:00 03:50:14 83° 166° (SSE) 03:53:26 437.305
ITUPSAT 1 27 May 04:00:45 04:02:48 12° 271° (W) 04:04:35 437.325
MOZHAYETS 4 27 May 04:04:49 04:06:15 12° 64° (ENE) 04:07:56
BEESAT 3 27 May 04:06:56 04:11:01 78° 240° (WSW) 04:15:01 437.485
Cosmos 2499 27 May 04:08:11 04:14:53 47° 269° (W) 04:21:39 435.465 / 435.565
KKS-1 27 May 04:09:32 04:13:52 46° 261° (W) 04:18:13 437.445
PHONESAT 2.4 27 May 04:15:00 04:18:22 49° 159° (SSE) 04:21:44 2401.200-2431.200
AO-7 27 May 04:16:47 04:22:06 19° 90° (E) 04:27:52 29.400- 29.500
Oscar 19 27 May 04:18:24 04:22:31 24° 293° (WNW) 04:26:29 437.125/150
ITAMSAT 1 27 May 04:31:30 04:36:39 59° 287° (WNW) 04:41:46 435.822/435.867
SO-50 27 May 04:38:01 04:42:37 54° 306° (NW) 04:47:23 436.795
AIST 2 27 May 04:45:24 04:49:35 59° 56° (NE) 04:53:41 435.215
HORYU 2 27 May 04:54:35 04:58:42 37° 98° (E) 05:02:49 437.375
BEESAT 2 27 May 04:56:10 04:59:42 27° 246° (WSW) 05:03:07 435.950
Gurwin Techsat 1B 27 May 05:09:46 05:14:20 29° 292° (WNW) 05:18:48 435.225
JAS-2 27 May 05:14:47 05:19:53 56° 100° (E) 05:25:09 435.910
STARS 27 May 05:15:49 05:18:30 15° 269° (W) 05:20:59 437.465
VERMONT LUNAR 27 May 05:24:18 05:27:31 67° 4° (N) 05:30:42 437.305
MOZHAYETS 4 27 May 05:38:24 05:42:58 71° 259° (W) 05:47:33
ISS 27 May 05:39:20 05:41:44 19° 23° (NNE) 05:44:10 145.825
CUBESAT XI-V 27 May 05:44:31 05:45:03 10° 63° (ENE) 05:45:52 437.345
PHONESAT 2.4 27 May 05:52:58 05:56:27 72° 354° (N) 05:59:55 2401.200-2431.200
AO-7 27 May 06:07:33 06:15:58 84° 290° (WNW) 06:24:21 29.400- 29.500
AIST 2 27 May 06:26:02 06:27:42 12° 251° (WSW) 06:29:07 435.215
HORYU 2 27 May 06:31:54 06:35:07 19° 293° (WNW) 06:38:11 437.375
Cosmos 2491 27 May 06:32:06 06:39:46 33° 70° (ENE) 06:47:33 435.465 / 435.565
CUTE-I 27 May 06:45:58 06:49:01 16° 90° (E) 06:52:19 437.470
STRAND 1 27 May 07:00:51 07:05:13 30° 69° (ENE) 07:09:41 437.568
JAS-2 27 May 07:01:25 07:04:40 16° 296° (WNW) 07:07:44 435.910
VERMONT LUNAR 27 May 07:01:33 07:04:43 56° 198° (SSW) 07:07:50 437.305
PRISM 27 May 07:02:18 07:05:51 30° 71° (ENE) 07:09:27 437.425
Cubesat XI-IV 27 May 07:05:38 07:09:57 25° 94° (E) 07:14:22 437.490
ISS 27 May 07:15:12 07:18:27 69° 220° (SW) 07:21:41 145.825
CUBESAT XI-V 27 May 07:17:18 07:21:54 81° 258° (WSW) 07:26:32 437.345
M-CUBED/EXP-1 PRIME 27 May 07:20:51 07:24:39 34° 68° (ENE) 07:28:15 437.505
YUBILEINY 27 May 07:23:00 07:30:05 30° 85° (E) 07:37:23 435.215
AUBIESAT-1 27 May 07:28:52 07:32:42 36° 68° (ENE) 07:36:18 437.475
PHONESAT 2.4 27 May 07:31:11 07:34:40 88° 1° (N) 07:38:08 2401.200-2431.200
AO-7 27 May 08:02:10 08:07:44 19° 307° (NW) 08:12:55 29.400- 29.500
CUTE-I 27 May 08:24:17 08:29:36 62° 287° (WNW) 08:34:53 437.470
Cosmos 2491 27 May 08:28:32 08:37:03 53° 270° (W) 08:45:24 435.465 / 435.565
RS-15 27 May 08:33:23 08:41:59 30° 106° (ESE) 08:51:07 29.354- 29.394
PRISM 27 May 08:38:18 08:41:22 20° 266° (W) 08:44:20 437.425
VERMONT LUNAR 27 May 08:39:55 08:41:30 13° 213° (SSW) 08:43:00 437.305
STRAND 1 27 May 08:39:56 08:44:24 30° 264° (W) 08:48:50 437.568
Cubesat XI-IV 27 May 08:45:12 08:50:12 40° 290° (WNW) 08:55:09 437.490
BRITE-PL 27 May 08:51:38 08:56:20 27° 92° (E) 09:00:56 437.365/2234.400
GOMX 1 27 May 08:54:09 08:57:30 17° 88° (E) 09:00:58 467.674
M-CUBED/EXP-1 PRIME 27 May 08:56:30 08:59:34 19° 260° (W) 09:02:22 437.505
AIST 1 27 May 08:58:52 09:03:15 70° 265° (W) 09:07:37
AUBIESAT-1 27 May 09:04:42 09:07:33 17° 261° (W) 09:10:09 437.475
PCSat 27 May 09:06:49 09:07:17 10° 37° (NE) 09:08:00 145.827
